FDX5124 LIMC-FAOR

Flight info

Callsign FDX5124
Flight time N/A
Altitude 31000
Route LAGEN9X LAGEN DCT PIDAD DCT TALEP DCT VAREK DCT ERPIN DCT ETOIL DCT CIRTA UA605 CSO UM998 IBRIT UT941 RUDAS UQ25 ITROL Q44 AVAGO AVAGO1D
Aircraft B77L/H-SDE1E2E3FGHIJ2J3J4J5M1RWXY/LB1D1

Departure

Time 2026-05-08 01:12
Airport Milan Malpensa International Airport (LIMC)

Arrival

Time N/A
Airport O.R. Tambo International Airport (FAOR)
Time Latitude Longitude Altitude Speed Heading
2026-05-08 00:10 45.61028 8.72022 746 ft 0 kts 259°
2026-05-08 00:54 45.61028 8.72023 746 ft 1 kts 259°
2026-05-08 00:55 45.61033 8.72057 746 ft 4 kts 253°
2026-05-08 00:55 45.61042 8.72093 741 ft 4 kts 243°
2026-05-08 00:55 45.61057 8.72124 743 ft 4 kts 220°
2026-05-08 00:55 45.61077 8.72138 742 ft 2 kts 170°
2026-05-08 00:56 45.61079 8.72137 746 ft 1 kts 169°
2026-05-08 01:00 45.61067 8.72140 742 ft 5 kts 169°
2026-05-08 01:00 45.61008 8.72156 744 ft 10 kts 169°
2026-05-08 01:00 45.60937 8.72176 742 ft 10 kts 169°
2026-05-08 01:01 45.60865 8.72195 743 ft 10 kts 169°
2026-05-08 01:01 45.60794 8.72214 746 ft 10 kts 168°
2026-05-08 01:01 45.60723 8.72235 744 ft 10 kts 168°
2026-05-08 01:01 45.60653 8.72261 742 ft 10 kts 150°
2026-05-08 01:02 45.60635 8.72354 745 ft 11 kts 81°
2026-05-08 01:02 45.60640 8.72458 746 ft 11 kts 94°
2026-05-08 01:02 45.60632 8.72562 742 ft 11 kts 102°
2026-05-08 01:02 45.60623 8.72666 743 ft 11 kts 95°
2026-05-08 01:03 45.60618 8.72770 746 ft 11 kts 94°
2026-05-08 01:03 45.60612 8.72875 746 ft 11 kts 94°
2026-05-08 01:03 45.60604 8.72979 745 ft 11 kts 97°
2026-05-08 01:03 45.60595 8.73084 742 ft 11 kts 95°
2026-05-08 01:04 45.60598 8.73188 743 ft 11 kts 75°
2026-05-08 01:04 45.60642 8.73271 742 ft 11 kts 33°
2026-05-08 01:04 45.60718 8.73318 743 ft 13 kts 21°
2026-05-08 01:04 45.60806 8.73368 746 ft 15 kts 21°
2026-05-08 01:05 45.60907 8.73405 742 ft 16 kts 354°
2026-05-08 01:05 45.61012 8.73375 745 ft 15 kts 348°
2026-05-08 01:05 45.61118 8.73346 746 ft 15 kts 349°
2026-05-08 01:05 45.61224 8.73317 745 ft 15 kts 349°
2026-05-08 01:06 45.61330 8.73287 746 ft 15 kts 349°
2026-05-08 01:06 45.61436 8.73258 743 ft 15 kts 349°
2026-05-08 01:06 45.61542 8.73228 746 ft 15 kts 349°
2026-05-08 01:06 45.61611 8.73243 746 ft 10 kts 52°
2026-05-08 01:07 45.61622 8.73338 743 ft 10 kts 80°
2026-05-08 01:07 45.61629 8.73418 744 ft 0 kts 99°
2026-05-08 01:09 45.61627 8.73429 746 ft 2 kts 103°
2026-05-08 01:09 45.61617 8.73461 742 ft 5 kts 118°
2026-05-08 01:09 45.61598 8.73512 746 ft 7 kts 115°
2026-05-08 01:10 45.61585 8.73589 745 ft 7 kts 92°
2026-05-08 01:10 45.61585 8.73592 745 ft 0 kts 90°
2026-05-08 01:10 45.61585 8.73598 745 ft 4 kts 90°
2026-05-08 01:10 45.61605 8.73702 740 ft 13 kts 59°
2026-05-08 01:11 45.61711 8.73710 741 ft 25 kts 349°
2026-05-08 01:11 45.62107 8.73602 743 ft 97 kts 348°
2026-05-08 01:11 45.63020 8.73348 740 ft 169 kts 349°
2026-05-08 01:11 45.64278 8.73007 1192 ft 184 kts 348°
2026-05-08 01:12 45.65543 8.72730 1995 ft 190 kts
2026-05-08 01:12 45.66822 8.73301 2401 ft 196 kts 39°
2026-05-08 01:12 45.67680 8.74787 2856 ft 194 kts 57°
2026-05-08 01:12 45.68440 8.76411 3220 ft 197 kts 55°
2026-05-08 01:13 45.69264 8.78014 3538 ft 203 kts 53°
2026-05-08 01:13 45.70138 8.79635 3869 ft 208 kts 53°
2026-05-08 01:13 45.71042 8.81289 4265 ft 213 kts 53°
2026-05-08 01:13 45.71915 8.83041 4597 ft 223 kts 64°
2026-05-08 01:14 45.72368 8.85183 4913 ft 230 kts 87°
2026-05-08 01:14 45.72192 8.87461 5355 ft 234 kts 109°
2026-05-08 01:14 45.71404 8.89499 5871 ft 236 kts 131°
2026-05-08 01:14 45.70129 8.90947 6412 ft 236 kts 154°
2026-05-08 01:15 45.68547 8.91602 6870 ft 240 kts 176°
2026-05-08 01:15 45.66896 8.91320 7371 ft 242 kts 199°
2026-05-08 01:15 45.65439 8.90131 7854 ft 244 kts 222°
2026-05-08 01:15 45.64421 8.88205 8346 ft 245 kts 246°
2026-05-08 01:16 45.64044 8.85840 8845 ft 247 kts 268°
2026-05-08 01:16 45.64069 8.83379 9331 ft 249 kts 269°
2026-05-08 01:16 45.64068 8.80895 9845 ft 250 kts 269°
2026-05-08 01:16 45.64076 8.78435 10324 ft 251 kts 269°
2026-05-08 01:17 45.64073 8.75931 10791 ft 253 kts 269°
2026-05-08 01:17 45.64021 8.73428 11230 ft 252 kts 260°
2026-05-08 01:17 45.63451 8.71001 11383 ft 266 kts 244°
2026-05-08 01:17 45.62658 8.68562 11677 ft 276 kts 245°
2026-05-08 01:18 45.61848 8.65981 11855 ft 293 kts 246°
2026-05-08 01:18 45.60997 8.63237 12014 ft 312 kts 246°
2026-05-08 01:18 45.60100 8.60315 12184 ft 331 kts 246°
2026-05-08 01:18 45.59155 8.57213 12354 ft 350 kts 246°
2026-05-08 01:19 45.58163 8.53949 12597 ft 367 kts 246°
2026-05-08 01:19 45.57133 8.50559 13115 ft 375 kts 246°
2026-05-08 01:19 45.55983 8.47222 13616 ft 378 kts 235°
2026-05-08 01:19 45.54106 8.44574 14072 ft 385 kts 214°
2026-05-08 01:20 45.51694 8.42908 14707 ft 385 kts 200°
2026-05-08 01:20 45.49148 8.41664 15267 ft 390 kts 199°
2026-05-08 01:20 45.46565 8.40426 15869 ft 393 kts 199°
2026-05-08 01:20 45.43962 8.39176 16497 ft 396 kts 199°
2026-05-08 01:21 45.41342 8.37911 17111 ft 399 kts 199°
2026-05-08 01:21 45.38702 8.36625 17702 ft 403 kts 199°
2026-05-08 01:21 45.36043 8.35321 18284 ft 407 kts 199°
2026-05-08 01:21 45.33358 8.33998 18812 ft 410 kts 199°
2026-05-08 01:22 45.30654 8.32667 19376 ft 411 kts 200°
2026-05-08 01:22 45.27950 8.31337 19937 ft 413 kts 200°
2026-05-08 01:22 45.25230 8.29999 20474 ft 415 kts 200°
2026-05-08 01:22 45.22498 8.28654 21005 ft 417 kts 201°
2026-05-08 01:23 45.19745 8.27299 21530 ft 419 kts 201°
2026-05-08 01:23 45.16987 8.25945 22054 ft 421 kts 201°
2026-05-08 01:23 45.14206 8.24582 22581 ft 424 kts 201°
2026-05-08 01:23 45.11353 8.23543 22933 ft 430 kts 188°
2026-05-08 01:24 45.08336 8.23769 23281 ft 442 kts 170°
2026-05-08 01:24 45.05377 8.24955 23687 ft 444 kts 167°
2026-05-08 01:24 45.02393 8.26162 24069 ft 447 kts 168°
2026-05-08 01:24 44.99390 8.27327 24497 ft 448 kts 168°
2026-05-08 01:25 44.96375 8.28478 24950 ft 450 kts 169°
2026-05-08 01:25 44.93347 8.29625 25359 ft 452 kts 169°
2026-05-08 01:25 44.90304 8.30773 25769 ft 454 kts 169°
2026-05-08 01:25 44.87246 8.31925 26170 ft 456 kts 169°
2026-05-08 01:26 44.84181 8.33078 26625 ft 456 kts 169°
2026-05-08 01:26 44.81107 8.34233 27052 ft 458 kts 169°
2026-05-08 01:26 44.78020 8.35391 27431 ft 460 kts 169°
2026-05-08 01:26 44.74919 8.36555 27791 ft 462 kts 169°
2026-05-08 01:27 44.71802 8.37724 28154 ft 464 kts 169°
2026-05-08 01:27 44.68672 8.38897 28527 ft 466 kts 169°
2026-05-08 01:27 44.65538 8.40070 28934 ft 466 kts 169°
2026-05-08 01:27 44.62408 8.41239 29330 ft 466 kts 169°
2026-05-08 01:28 44.59263 8.42413 29714 ft 467 kts 169°
2026-05-08 01:28 44.56132 8.43581 30166 ft 466 kts 169°
2026-05-08 01:28 44.53009 8.44749 30575 ft 463 kts 170°
2026-05-08 01:28 44.49896 8.45908 30922 ft 463 kts 170°
2026-05-08 01:29 44.46760 8.47068 30943 ft 468 kts 170°
2026-05-08 01:29 44.40492 8.49394 31010 ft 464 kts 170°
2026-05-08 01:30 44.34242 8.51420 31013 ft 459 kts 173°
2026-05-08 01:30 44.27979 8.53108 31003 ft 457 kts 174°
2026-05-08 01:31 44.21741 8.54801 31005 ft 456 kts 173°
2026-05-08 01:31 44.15518 8.56534 31006 ft 456 kts 173°
2026-05-08 01:32 44.09293 8.58282 30988 ft 456 kts 173°
2026-05-08 01:32 44.03071 8.60031 31000 ft 456 kts 173°
2026-05-08 01:33 43.96882 8.61760 30993 ft 457 kts 173°
2026-05-08 01:33 43.90650 8.63495 30994 ft 457 kts 173°
2026-05-08 01:34 43.84416 8.65240 30992 ft 455 kts 173°
2026-05-08 01:34 43.78189 8.66957 31003 ft 458 kts 173°
2026-05-08 01:35 43.71966 8.68715 31010 ft 454 kts 172°
2026-05-08 01:35 43.65786 8.70401 30997 ft 453 kts 174°
2026-05-08 01:36 43.59532 8.71300 30997 ft 451 kts 184°
2026-05-08 01:36 43.53270 8.71128 31002 ft 452 kts 183°
2026-05-08 01:37 43.47033 8.70463 30996 ft 448 kts 194°
2026-05-08 01:37 43.41043 8.68011 30991 ft 447 kts 206°
2026-05-08 01:38 43.35427 8.64371 30992 ft 445 kts 207°
2026-05-08 01:38 43.29851 8.60687 30983 ft 444 kts 207°
2026-05-08 01:39 43.24279 8.57043 30982 ft 443 kts 206°
2026-05-08 01:39 43.18711 8.53436 30996 ft 443 kts 206°
2026-05-08 01:40 43.13128 8.49852 30992 ft 443 kts 206°
2026-05-08 01:40 43.07544 8.46281 30985 ft 442 kts 205°
2026-05-08 01:41 43.01964 8.42735 30990 ft 442 kts 206°
2026-05-08 01:41 42.96390 8.39140 30989 ft 444 kts 206°
2026-05-08 01:42 42.90787 8.35565 30963 ft 445 kts 205°
2026-05-08 01:42 42.85150 8.32002 30991 ft 448 kts 205°
2026-05-08 01:43 42.79481 8.28407 30992 ft 450 kts 206°
2026-05-08 01:43 42.73848 8.24784 30976 ft 446 kts 206°
2026-05-08 01:44 42.68257 8.21271 30968 ft 447 kts 205°
2026-05-08 01:44 42.62595 8.17719 30989 ft 449 kts 205°
2026-05-08 01:45 42.56921 8.14151 30984 ft 449 kts 205°
2026-05-08 01:45 42.51243 8.10583 30982 ft 451 kts 205°
2026-05-08 01:46 42.45544 8.07008 30982 ft 452 kts 205°
2026-05-08 01:46 42.39832 8.03430 30985 ft 452 kts 205°
2026-05-08 01:47 42.34118 7.99859 30981 ft 452 kts 205°
2026-05-08 01:47 42.28383 7.96365 31001 ft 452 kts 203°
2026-05-08 01:48 42.19654 7.91619 30984 ft 449 kts 202°
2026-05-08 01:48 42.13887 7.88518 30987 ft 445 kts 202°
2026-05-08 01:49 42.08111 7.85361 30996 ft 452 kts 202°
2026-05-08 01:49 42.02272 7.82148 30990 ft 453 kts 201°